Location: Azul
(36.7830°S, 59.8500°W)
Time: 23:24:32
(UTC-03:00)

STARS - Pass Details

Date: 29 October 2021
Orbit: 623 x 638 km, 98.2° (Epoch: 30 November)

Event Time Altitude Azimuth Distance (km) Brightness Sun altitude
Exits shadow 23:27:08 13° 240° (WSW) 1,809 ? -36.3°
Drops below altitude 10° 23:28:00 10° 231° (SW) 2,026 ? -36.4°
Sets 23:30:51 0° 211° (SSW) 2,941 ? -36.6°
